Time,TemperatureF,DewpointF,PressureIn,WindDirection,WindDirectionDegrees,WindSpeedMPH,WindSpeedGustMPH,Humidity,HourlyPrecipIn,Conditions,Clouds,dailyrainin,SoftwareType,DateUTC
2013-09-12 00:24:00,75.0,68.0,29.89,North,357,0.0,0.0,80,0.00,,,0.00,,2013-09-12 04:24:00,
2013-09-12 00:54:00,74.0,68.0,29.87,North,357,0.0,0.0,82,0.00,,,0.00,,2013-09-12 04:54:00,
2013-09-12 01:23:00,74.0,67.0,29.86,SSE,158,0.0,0.0,80,0.00,,,0.00,,2013-09-12 05:23:00,
2013-09-12 01:53:00,74.0,68.0,29.85,SSE,160,0.0,0.0,81,0.00,,,0.00,,2013-09-12 05:53:00,
2013-09-12 02:22:00,73.0,66.0,29.84,SSE,160,0.0,0.0,80,0.00,,,0.00,,2013-09-12 06:22:00,
2013-09-12 02:52:00,73.0,66.0,29.83,South,178,0.0,0.0,80,0.00,,,0.00,,2013-09-12 06:52:00,
2013-09-12 03:12:00,73.0,67.0,29.84,South,179,0.0,0.0,82,0.00,,,0.00,,2013-09-12 07:12:00,
2013-09-12 03:22:00,73.0,67.0,29.84,SW,227,0.0,0.0,81,0.00,,,0.00,,2013-09-12 07:22:00,
2013-09-12 03:52:00,73.0,67.0,29.84,SW,234,0.0,0.0,81,0.00,,,0.00,,2013-09-12 07:52:00,
2013-09-12 04:22:00,72.0,67.0,29.84,SW,233,0.0,0.0,84,0.00,,,0.00,,2013-09-12 08:22:00,
2013-09-12 04:52:00,71.0,67.0,29.85,SW,233,0.0,0.0,87,0.00,,,0.00,,2013-09-12 08:52:00,
2013-09-12 05:21:00,70.0,67.0,29.85,SW,233,0.0,0.0,89,0.00,,,0.00,,2013-09-12 09:21:00,
2013-09-12 05:53:00,70.0,67.0,29.85,SW,233,0.0,0.0,90,0.00,,,0.00,,2013-09-12 09:53:00,
2013-09-12 06:23:00,69.0,66.0,29.84,SW,232,0.0,0.0,91,0.00,,,0.00,,2013-09-12 10:23:00,
2013-09-12 06:53:00,69.0,67.0,29.83,SW,232,0.0,0.0,94,0.00,,,0.00,,2013-09-12 10:53:00,
2013-09-12 07:22:00,70.0,68.0,29.82,SW,232,0.0,0.0,95,0.00,,,0.00,,2013-09-12 11:22:00,
2013-09-12 07:52:00,71.0,69.0,29.82,SW,232,0.0,0.0,95,0.00,,,0.00,,2013-09-12 11:52:00,
2013-09-12 08:22:00,73.0,71.0,29.82,SW,232,0.0,0.0,93,0.00,,,0.00,,2013-09-12 12:22:00,
2013-09-12 08:52:00,74.0,71.0,29.81,SW,226,0.0,0.0,91,0.00,,,0.00,,2013-09-12 12:52:00,
2013-09-12 09:22:00,75.0,72.0,29.80,SW,229,0.0,1.0,89,0.00,,,0.00,,2013-09-12 13:22:00,
2013-09-12 09:52:00,78.0,72.0,29.79,SW,226,1.0,10.0,83,0.00,,,0.00,,2013-09-12 13:52:00,
2013-09-12 10:22:00,80.0,73.0,29.78,SW,228,4.0,7.0,79,0.00,,,0.00,,2013-09-12 14:22:00,
2013-09-12 10:52:00,81.0,73.0,29.77,SW,227,1.0,8.0,77,0.00,,,0.00,,2013-09-12 14:52:00,
2013-09-12 11:22:00,83.0,73.0,29.76,SW,230,3.0,10.0,73,0.00,,,0.00,,2013-09-12 15:22:00,
2013-09-12 11:53:00,84.0,74.0,29.75,SSW,196,0.0,10.0,72,0.00,,,0.00,,2013-09-12 15:53:00,
2013-09-12 12:23:00,85.0,74.0,29.74,SW,224,3.0,12.0,70,0.00,,,0.00,,2013-09-12 16:23:00,
2013-09-12 12:53:00,85.0,74.0,29.72,SW,223,3.0,13.0,69,0.00,,,0.00,,2013-09-12 16:53:00,
2013-09-12 13:23:00,84.0,73.0,29.72,SW,231,2.0,13.0,70,0.00,,,0.00,,2013-09-12 17:23:00,
2013-09-12 13:53:00,85.0,73.0,29.70,SW,226,7.0,17.0,68,0.00,,,0.00,,2013-09-12 17:53:00,
2013-09-12 14:22:00,84.0,73.0,29.68,SW,222,2.0,12.0,69,0.00,,,0.00,,2013-09-12 18:22:00,
2013-09-12 14:52:00,87.0,73.0,29.66,SW,233,10.0,19.0,63,0.00,,,0.00,,2013-09-12 18:52:00,
2013-09-12 15:12:00,86.0,72.0,29.66,SW,218,2.0,17.0,64,0.00,,,0.00,,2013-09-12 19:12:00,
2013-09-12 15:22:00,85.0,71.0,29.66,SW,223,2.0,13.0,63,0.00,,,0.00,,2013-09-12 19:22:00,
2013-09-12 15:52:00,85.0,70.0,29.64,SW,228,3.0,17.0,62,0.00,,,0.00,,2013-09-12 19:52:00,
2013-09-12 16:12:00,84.0,70.0,29.64,SW,235,1.0,13.0,62,0.00,,,0.00,,2013-09-12 20:12:00,
2013-09-12 16:22:00,83.0,70.0,29.64,North,352,0.0,12.0,66,0.00,,,0.00,,2013-09-12 20:22:00,
2013-09-12 16:52:00,78.0,68.0,29.65,NNE,16,0.0,7.0,72,0.00,,,0.00,,2013-09-12 20:52:00,
2013-09-12 17:22:00,77.0,67.0,29.63,North,349,0.0,0.0,72,0.00,,,0.00,,2013-09-12 21:22:00,
2013-09-12 17:54:00,76.0,67.0,29.62,North,11,0.0,0.0,73,0.00,,,0.00,,2013-09-12 21:54:00,
2013-09-12 18:13:00,76.0,67.0,29.62,North,11,0.0,0.0,74,0.00,,,0.00,,2013-09-12 22:13:00,
2013-09-12 18:24:00,76.0,67.0,29.62,North,11,0.0,0.0,75,0.00,,,0.00,,2013-09-12 22:24:00,
2013-09-12 18:54:00,75.0,68.0,29.63,NW,322,2.0,11.0,79,0.00,,,0.00,,2013-09-12 22:54:00,
2013-09-12 19:23:00,74.0,68.0,29.62,NNE,23,0.0,5.0,82,0.00,,,0.00,,2013-09-12 23:23:00,
2013-09-12 19:52:00,73.0,68.0,29.62,ENE,69,0.0,0.0,84,0.00,,,0.00,,2013-09-12 23:52:00,
2013-09-12 20:11:00,73.0,68.0,29.62,ENE,71,0.0,0.0,85,0.00,,,0.00,,2013-09-13 00:11:00,
2013-09-12 20:22:00,73.0,68.0,29.62,ESE,106,0.0,0.0,85,0.00,,,0.00,,2013-09-13 00:22:00,
2013-09-12 20:52:00,73.0,68.0,29.62,East,85,0.0,0.0,84,0.00,,,0.00,,2013-09-13 00:52:00,
2013-09-12 21:22:00,71.0,69.0,29.64,NNW,331,1.0,16.0,92,0.10,,,0.10,,2013-09-13 01:22:00,
2013-09-12 21:42:00,70.0,68.0,29.63,North,6,0.0,8.0,94,0.07,,,0.17,,2013-09-13 01:42:00,
2013-09-12 21:52:00,69.0,68.0,29.63,NNE,20,1.0,8.0,95,0.07,,,0.17,,2013-09-13 01:52:00,
2013-09-12 22:12:00,69.0,68.0,29.63,North,1,0.0,1.0,96,0.20,,,0.30,,2013-09-13 02:12:00,
2013-09-12 22:22:00,68.0,67.0,29.63,North,360,0.0,0.0,97,0.37,,,0.47,,2013-09-13 02:22:00,
2013-09-12 22:53:00,68.0,67.0,29.63,NNE,31,0.0,0.0,98,0.46,,,0.98,,2013-09-13 02:53:00,
2013-09-12 23:22:00,68.0,68.0,29.63,SW,230,0.0,0.0,99,0.69,,,1.21,,2013-09-13 03:22:00,
2013-09-12 23:55:00,68.0,68.0,29.65,East,99,0.0,0.0,100,0.18,,,1.41,,2013-09-13 03:55:00,